Location: Unspecified
(51.0000°N, 12.0000°E)
Time: 01:15:54

ISS - Pass Details

Date: 09 March 2018
Orbit: 403 x 406 km, 51.6° (Epoch: 22 March)

Event Time Altitude Azimuth Distance (km) Brightness Sun altitude
Exits shadow 04:52:12 58° 270° (W) 481 -3.9 -17.6°
Maximum altitude 04:52:47 85° 349° (N) 414 -3.9 -17.5°
Drops below altitude 10° 04:56:05 10° 81° (E) 1,468 0.3 -17.0°
Sets 04:58:10 0° 82° (E) 2,328 1.8 -16.7°
